TimeMDT,TemperatureF,Dew PointF,Humidity,Sea Level PressureIn,VisibilityMPH,Wind Direction,Wind SpeedMPH,Gust SpeedMPH,PrecipitationIn,Events,Conditions,WindDirDegrees,DateUTC
12:56 AM,48.9,36.0,61,29.78,10.0,Calm,Calm,-,N/A,,Partly Cloudy,0,2013-09-29 06:56:00
1:56 AM,53.1,35.1,50,29.75,10.0,ESE,8.1,-,N/A,,Overcast,120,2013-09-29 07:56:00
2:56 AM,50.0,35.1,57,29.74,10.0,Calm,Calm,-,N/A,,Partly Cloudy,0,2013-09-29 08:56:00
3:56 AM,50.0,36.0,59,29.69,10.0,Variable,5.8,-,N/A,,Overcast,0,2013-09-29 09:56:00
4:56 AM,50.0,36.0,59,29.68,10.0,SE,5.8,-,N/A,,Scattered Clouds,140,2013-09-29 10:56:00
5:56 AM,51.1,35.1,54,29.67,10.0,Variable,3.5,-,N/A,,Partly Cloudy,0,2013-09-29 11:56:00
6:56 AM,57.0,33.1,40,29.62,10.0,South,9.2,-,N/A,,Partly Cloudy,190,2013-09-29 12:56:00
7:56 AM,60.1,32.0,35,29.62,10.0,SSW,16.1,21.9,N/A,,Clear,200,2013-09-29 13:56:00
8:56 AM,59.0,32.0,36,29.62,10.0,South,8.1,-,N/A,,Mostly Cloudy,170,2013-09-29 14:56:00
9:56 AM,62.1,32.0,32,29.61,10.0,SSW,19.6,29.9,N/A,,Partly Cloudy,210,2013-09-29 15:56:00
10:56 AM,64.0,32.0,30,29.57,10.0,SW,25.3,36.8,N/A,,Scattered Clouds,220,2013-09-29 16:56:00
11:56 AM,63.0,34.0,34,29.59,10.0,SW,17.3,29.9,N/A,,Mostly Cloudy,230,2013-09-29 17:56:00
12:56 PM,63.0,34.0,34,29.59,10.0,SW,28.8,42.6,N/A,,Mostly Cloudy,230,2013-09-29 18:56:00
1:19 PM,55.4,37.4,51,29.68,10.0,WNW,21.9,29.9,N/A,,Overcast,300,2013-09-29 19:19:00
1:56 PM,48.0,44.1,86,29.68,10.0,NW,19.6,-,0.02,Rain,Light Rain,320,2013-09-29 19:56:00
2:56 PM,44.1,39.9,85,29.77,5.0,NNW,13.8,-,0.03,Rain,Light Rain,330,2013-09-29 20:56:00
3:56 PM,44.1,39.9,85,29.79,5.0,Calm,Calm,-,0.08,Rain,Rain,0,2013-09-29 21:56:00
4:56 PM,44.1,41.0,89,29.78,6.0,East,4.6,-,0.06,Rain,Light Rain,90,2013-09-29 22:56:00
5:56 PM,44.1,39.9,85,29.78,8.0,SSE,5.8,-,0.05,Rain,Light Rain,150,2013-09-29 23:56:00
6:56 PM,44.1,39.9,85,29.78,10.0,South,3.5,-,0.02,Rain,Light Rain,190,2013-09-30 00:56:00
7:56 PM,43.0,39.9,89,29.79,9.0,SSE,4.6,-,0.08,Rain,Light Rain,160,2013-09-30 01:56:00
8:56 PM,43.0,39.9,89,29.81,9.0,South,6.9,-,0.03,Rain,Light Rain,180,2013-09-30 02:56:00
9:56 PM,44.1,41.0,89,29.77,10.0,Calm,Calm,-,0.00,,Overcast,0,2013-09-30 03:56:00
10:56 PM,44.1,41.0,89,29.73,10.0,Calm,Calm,-,0.01,,Overcast,0,2013-09-30 04:56:00
11:56 PM,44.1,41.0,89,29.70,10.0,Calm,Calm,-,N/A,,Overcast,0,2013-09-30 05:56:00